[[{"header":{"parameterUnit":"m.s-1","parameterCategory":1,"la1":30.2991,"la2":30.254,"lo1":-89.0895,"lo2":-89.0444,"dy":0.0017,"dx":0.0017,"nx":28,"ny":28,"refTime":"2024-06-22T21:00:00:Z","depth":0,"parameterNumber":2,"parameterNumberName":"U-component_of_WINDS"},"data":[0,0,0,0,0,0,0,0,0,0,0,0,0,0,0,0,0,0,0,0,0,0,0,0,0,0,0,0,0,0,0,0,0,0,0,0,0,0,0,0,0,0,0,0,0,0,0,0,0,0,0,0,0,0,0,0,0,0,1.8679,1.868,0,1.8782,1.8784,1.8785,1.8804,1.8803,1.8802,1.8802,1.8906,1.8909,1.8913,0,0,0,0,0,0,0,0,0,0,0,0,0,1.8495,1.8498,1.8679,1.868,1.8682,1.8782,1.8784,1.8785,1.8804,1.8803,1.8802,1.8801,1.8905,1.8909,1.8913,0,0,0,0,0,0,0,0,0,0,0,0,0,1.8584,1.8499,1.8679,1.8703,1.8706,1.8782,1.8784,1.8785,1.8804,1.8803,1.8802,1.8801,1.8903,1.8908,1.8914,1.8971,0,0,1.893,1.8932,0,0,0,0,0,0,0,0,1.8579,1.8591,1.8698,1.8702,1.8705,1.8779,1.8757,1.8848,1.8805,1.8767,1.8802,1.88,1.8865,1.8873,1.8895,1.8976,1.8981,1.893,1.8934,1.8936,1.8937,0,0,0,0,0,0,0,1.8573,1.8586,1.872,1.87,1.8704,1.8708,1.8719,1.8774,1.8821,1.877,1.8772,1.8784,1.8866,1.889,1.8898,1.8982,1.893,1.8935,1.8938,1.894,1.9113,1.9114,0,0,0,0,0,0,1.8563,1.8581,1.8717,1.8723,1.8638,1.8712,1.8725,1.8757,1.8821,1.883,1.8785,1.8785,1.8881,1.8891,1.8901,1.8971,1.8936,1.8941,1.8944,1.9112,1.9113,1.9115,0,0,0,0,0,0,1.8559,1.8575,1.8712,1.8653,1.867,1.8717,1.8752,1.8759,1.8783,1.8832,1.884,1.8801,1.8881,1.8894,1.8953,1.8975,1.8943,1.8948,1.911,1.9112,1.9114,1.9112,0,0,0,0,0,0,1.8553,1.8573,1.8596,1.8653,1.8674,1.8763,1.8754,1.8762,1.8792,1.8793,1.8849,1.8857,1.8881,1.8945,1.8959,1.8982,1.8952,1.9108,1.9111,1.9113,1.911,1.9114,1.9117,0,0,0,0,0,1.8547,1.8592,1.8597,1.8614,1.8704,1.8765,1.8776,1.8803,1.8794,1.8817,1.8848,1.8855,1.8971,1.8951,1.8966,1.8991,1.9107,1.911,1.9113,1.9109,1.9113,1.9117,0,0,0,0,0,0,1.8537,1.86,1.8607,1.8672,1.8713,1.8768,1.8798,1.8807,1.8851,1.885,1.8881,1.8893,1.895,1.8977,1.8954,1.9049,1.9038,1.9044,1.903,1.9034,1.9037,1.9029,1.8957,0,0,0,0,0,1.8542,1.8587,1.864,1.8692,1.8712,1.8751,1.8779,1.8796,1.8839,1.8857,1.8892,1.8934,1.8979,1.9008,1.9053,1.9115,1.9126,1.9139,1.9142,1.9145,1.9149,1.9181,1.9187,1.9125,1.9125,1.9125,0,0,1.8553,1.8594,1.862,1.8691,1.8725,1.8769,1.8766,1.8814,1.8847,1.8864,1.8922,1.8949,1.8997,1.9057,1.9085,1.9081,1.9169,1.9149,1.915,1.9154,1.9185,1.9191,1.9196,1.9127,1.9127,1.9127,0,0,1.8597,1.8633,1.8679,1.8712,1.8763,1.8789,1.88,1.8853,1.8872,1.8931,1.8944,1.8983,1.9061,1.9094,1.9121,1.9174,1.9182,1.9188,1.9204,1.9235,1.924,1.9244,1.9261,1.9267,1.9193,1.9193,1.9193,0,1.8604,1.8673,1.8701,1.8748,1.8778,1.8795,1.8841,1.8872,1.8935,1.8954,1.8949,1.9046,1.908,1.9146,1.9159,1.9181,1.9193,1.9181,1.9237,1.9242,1.9246,1.9263,1.9269,1.9193,1.9193,1.9193,1.9193,0,1.8678,1.8726,1.8757,1.8816,1.885,1.8896,1.893,1.896,1.8974,1.8999,1.9057,1.9098,1.915,1.9167,1.9182,1.9235,1.9231,1.9231,1.922,1.9252,1.9268,1.9274,1.9193,1.9193,1.9193,1.9193,0,0,1.8719,1.8792,1.8803,1.8829,1.8886,1.8922,1.8968,1.9019,1.9043,1.9086,1.9123,1.9188,1.9188,1.9218,1.9236,1.9264,1.93,1.926,1.9261,1.9264,1.9359,1.9358,1.9365,1.9306,1.9307,1.9308,1.9354,0,1.8767,1.885,1.8876,1.8945,1.8987,1.9004,1.9044,1.9082,1.9107,1.9145,1.9173,1.9217,1.9214,1.9232,1.926,1.929,1.9319,1.9287,1.934,1.9341,1.9325,1.9373,1.9372,1.9414,1.9361,1.9362,1.9363,0,1.8835,1.8878,1.8951,1.9,1.9018,1.9054,1.9101,1.9139,1.9181,1.9197,1.923,1.9246,1.9292,1.928,1.9343,1.9321,1.9344,1.9361,1.9364,1.9368,1.9353,1.9377,1.9428,1.9434,1.9373,1.9373,1.9372,0,1.8854,1.893,1.8983,1.9005,1.9064,1.9088,1.9114,1.9156,1.9184,1.9225,1.9243,1.9289,1.9314,1.9349,1.9376,1.9364,1.9436,1.9426,1.9449,1.9448,1.9463,1.9461,1.9516,1.948,1.948,1.948,1.948,0,1.8904,1.8948,1.8992,1.9024,1.9072,1.9101,1.9148,1.9174,1.9211,1.9248,1.9265,1.9299,1.9333,1.9371,1.9392,1.944,1.9452,1.9464,1.9469,1.9462,1.946,1.9477,1.9474,1.9482,1.9481,1.9481,1.9481,0,1.8934,1.8965,1.9023,1.9074,1.9088,1.9121,1.9164,1.9195,1.922,1.9266,1.9278,1.9317,1.9362,1.9393,1.9451,1.9465,1.9517,1.9522,1.9502,1.9504,1.9524,1.9521,1.9591,1.96,1.9559,1.956,1.956,0,1.8963,1.8996,1.905,1.9076,1.9102,1.9144,1.9172,1.9201,1.923,1.928,1.9304,1.9351,1.9389,1.946,1.9493,1.9537,1.9542,1.9563,1.9549,1.954,1.954,1.9537,1.954,1.9565,1.9566,1.9566,1.9566,0,1.9011,1.9024,1.9065,1.911,1.9144,1.9181,1.9219,1.9238,1.9274,1.9305,1.9351,1.9381,1.9439,1.9484,1.9531,1.9556,1.9566,1.957,1.9578,1.957,1.9556,1.9562,1.9506,1.9569,1.9568,1.9568,1.9568,1.9568,1.904,1.9069,1.9111,1.9155,1.9186,1.922,1.9251,1.928,1.9319,1.9369,1.9384,1.9431,1.9471,1.9535,1.9561,1.9597,1.9595,1.9606,1.9609,1.9611,1.9609,1.9551,1.9606,1.9606,1.9606,1.9606,1.9606,0,1.9086,1.9114,1.9154,1.9205,1.9239,1.9247,1.9288,1.9315,1.9357,1.9394,1.9431,1.9483,1.9526,1.9562,1.9606,1.9629,1.9634,1.9639,1.9637,1.9642,1.961,1.9598,1.9634,1.9634,1.9634,1.9634,1.9634,1.9634,1.9115,1.9164,1.9183,1.9247,1.9274,1.9321,1.9344,1.9374,1.9403,1.9461,1.9497,1.952,1.9556,1.9602,1.9642,1.9651,1.9666,1.9669,1.9679,1.9648,1.9645,1.9642,1.9631,1.9673,1.9673,1.9708,1.9709,1.9709]},{"header":{"parameterUnit":"m.s-1","parameterCategory":1,"la1":30.2991,"la2":30.254,"lo1":-89.0895,"lo2":-89.0444,"dy":0.0017,"dx":0.0017,"nx":28,"ny":28,"refTime":"2024-06-22T21:00:00:Z","depth":0,"parameterNumber":3,"parameterNumberName":"V-component_of_WINDS"},"data":[0,0,0,0,0,0,0,0,0,0,0,0,0,0,0,0,0,0,0,0,0,0,0,0,0,0,0,0,0,0,0,0,0,0,0,0,0,0,0,0,0,0,0,0,0,0,0,0,0,0,0,0,0,0,0,0,0,0,3.1814,3.1814,0,3.1832,3.1832,3.1832,3.1774,3.1772,3.177,3.1769,3.1786,3.1788,3.179,0,0,0,0,0,0,0,0,0,0,0,0,0,3.1727,3.1729,3.1814,3.1814,3.1814,3.1832,3.1832,3.1832,3.1774,3.1772,3.177,3.1768,3.1785,3.1787,3.179,0,0,0,0,0,0,0,0,0,0,0,0,0,3.1757,3.173,3.1814,3.1788,3.1785,3.1832,3.1832,3.1832,3.1775,3.1772,3.1769,3.1767,3.1784,3.1787,3.179,3.1862,0,0,3.18,3.1801,0,0,0,0,0,0,0,0,3.1755,3.176,3.1791,3.1789,3.1787,3.1798,3.1807,3.1842,3.1775,3.1779,3.1769,3.1765,3.1792,3.1794,3.1803,3.1863,3.1864,3.18,3.1802,3.1803,3.1804,0,0,0,0,0,0,0,3.1753,3.1759,3.1821,3.1792,3.1789,3.1774,3.1775,3.1814,3.18,3.1778,3.1774,3.1777,3.179,3.18,3.1803,3.1864,3.18,3.1803,3.1805,3.1806,3.1981,3.1984,0,0,0,0,0,0,3.1755,3.1758,3.182,3.1821,3.1764,3.1778,3.1779,3.1797,3.1799,3.1797,3.1779,3.1774,3.1796,3.18,3.1803,3.1886,3.1803,3.1806,3.1808,3.1979,3.1982,3.1985,0,0,0,0,0,0,3.1753,3.1761,3.182,3.1788,3.1795,3.1782,3.1803,3.1799,3.1809,3.18,3.1797,3.1792,3.1794,3.1799,3.1848,3.1886,3.1808,3.1811,3.1975,3.198,3.1984,3.2054,0,0,0,0,0,0,3.1751,3.1761,3.1789,3.179,3.1797,3.1864,3.1805,3.1801,3.1815,3.1808,3.1811,3.1809,3.1793,3.1843,3.1851,3.1889,3.1813,3.1972,3.1977,3.1982,3.2048,3.206,3.207,0,0,0,0,0,3.1748,3.1808,3.1791,3.1799,3.1832,3.1867,3.1871,3.185,3.1818,3.1845,3.1839,3.1809,3.1881,3.1849,3.1857,3.1896,3.1969,3.1976,3.1982,3.2043,3.2057,3.2069,0,0,0,0,0,0,3.1813,3.1808,3.1788,3.1851,3.186,3.1857,3.1891,3.1867,3.1885,3.1878,3.1852,3.1853,3.1906,3.1906,3.187,3.1965,3.1919,3.1928,3.1963,3.1977,3.1987,3.1986,3.1816,0,0,0,0,0,3.1834,3.1864,3.1858,3.1913,3.1919,3.1904,3.1919,3.1902,3.191,3.1914,3.1911,3.192,3.1944,3.196,3.1982,3.2048,3.2046,3.2079,3.209,3.2099,3.2106,3.2138,3.2152,3.2006,3.2006,3.2005,0,0,3.1879,3.188,3.19,3.1926,3.1931,3.1961,3.1908,3.1943,3.1964,3.1919,3.1964,3.1963,3.197,3.2027,3.2052,3.2029,3.2146,3.2107,3.2114,3.2116,3.2146,3.216,3.2172,3.201,3.2009,3.2008,0,0,3.1975,3.198,3.2025,3.2031,3.2039,3.2029,3.204,3.2041,3.2038,3.2083,3.2049,3.2074,3.2117,3.2123,3.2131,3.2228,3.2201,3.2236,3.2293,3.2325,3.2337,3.2347,3.238,3.2392,3.2243,3.2244,3.2244,0,3.203,3.2075,3.2052,3.2088,3.21,3.206,3.2105,3.2111,3.2126,3.2135,3.2109,3.216,3.2163,3.2219,3.2242,3.2252,3.2262,3.2235,3.2337,3.2347,3.2356,3.2387,3.24,3.2248,3.2247,3.2247,3.2246,0,3.214,3.2171,3.2207,3.2222,3.2237,3.2278,3.226,3.2279,3.226,3.2252,3.2298,3.2299,3.232,3.2332,3.2315,3.2386,3.2371,3.2342,3.2295,3.2374,3.2403,3.2415,3.2254,3.2252,3.2251,3.225,0,0,3.2278,3.2279,3.2292,3.2297,3.2302,3.2325,3.2364,3.2383,3.2399,3.241,3.244,3.2476,3.2449,3.2459,3.2442,3.247,3.2544,3.2437,3.2436,3.2455,3.262,3.2641,3.2656,3.2526,3.2529,3.253,3.2619,0,3.2372,3.2437,3.2417,3.2482,3.2509,3.2471,3.2504,3.251,3.2503,3.2525,3.2517,3.2543,3.2505,3.251,3.2537,3.253,3.2577,3.2523,3.2553,3.2554,3.2551,3.2671,3.2694,3.2777,3.263,3.2632,3.2634,0,3.249,3.2504,3.2573,3.2571,3.2582,3.2612,3.2627,3.2649,3.2654,3.2647,3.2658,3.2634,3.267,3.2624,3.2672,3.2636,3.2647,3.2645,3.2648,3.2649,3.2598,3.2674,3.2804,3.2816,3.2651,3.265,3.2649,0,3.2581,3.2619,3.2663,3.2669,3.2669,3.269,3.2691,3.2694,3.2707,3.272,3.2728,3.2746,3.2755,3.2769,3.275,3.2719,3.2801,3.2754,3.2795,3.2795,3.2813,3.2812,3.2945,3.2823,3.2822,3.2822,3.2822,0,3.2687,3.273,3.2704,3.2732,3.2778,3.2754,3.28,3.2796,3.2799,3.2824,3.2792,3.2817,3.2791,3.2813,3.2799,3.284,3.2845,3.2839,3.2835,3.2841,3.2842,3.2847,3.2841,3.2825,3.2825,3.2824,3.2823,0,3.2797,3.2782,3.2828,3.2823,3.2823,3.2857,3.2853,3.2877,3.2868,3.29,3.2906,3.2892,3.2915,3.2898,3.2922,3.2913,3.2966,3.2954,3.2964,3.2961,3.3002,3.2998,3.3143,3.316,3.3027,3.3029,3.303,0,3.2865,3.2897,3.2895,3.2909,3.2912,3.2936,3.2948,3.2925,3.2939,3.2947,3.297,3.2991,3.3007,3.3046,3.3037,3.3055,3.3042,3.3092,3.3045,3.305,3.3041,3.3039,3.3041,3.3101,3.3103,3.3104,3.3105,0,3.2986,3.2977,3.2996,3.3012,3.3027,3.3039,3.3048,3.3061,3.3038,3.3055,3.3078,3.309,3.3114,3.3135,3.3149,3.3149,3.3123,3.312,3.313,3.3136,3.314,3.3137,3.2989,3.3116,3.3115,3.3114,3.3114,3.3113,3.3076,3.3102,3.3104,3.3125,3.3129,3.3138,3.316,3.3153,3.3172,3.319,3.3175,3.3203,3.3206,3.3222,3.3225,3.3246,3.3225,3.3241,3.3244,3.3248,3.3253,3.3138,3.3249,3.3248,3.3248,3.3248,3.3247,0,3.3194,3.3193,3.3213,3.3226,3.3243,3.3217,3.3225,3.324,3.3265,3.327,3.3286,3.3312,3.3331,3.3324,3.334,3.3359,3.3347,3.3364,3.3362,3.3362,3.3271,3.326,3.3373,3.3373,3.3373,3.3373,3.3373,3.3373,3.3258,3.3299,3.3289,3.3331,3.333,3.3357,3.3363,3.337,3.3374,3.3405,3.342,3.3415,3.3414,3.3431,3.3447,3.3444,3.3451,3.3472,3.3465,3.3381,3.3368,3.3356,3.3346,3.3474,3.3475,3.3553,3.3554,3.3555]}]]